FW6987 Weather Reports


time (UTC)temp
F
wind
direction
speed
knots
gust
knots
rain 1hr
in
rain 24hr
in
rain mn
in
humidity
%
barometer
mb
20260506014550 72 0 0.0 0.0 0.00 0.00 0.00 46 999.2
20260506013056 72 0 0.0 2.6 0.00 0.00 0.00 46 999.1
20260506011602 72 0 0.0 2.6 0.00 0.00 0.00 46 998.9
20260506010052 73 0 0.0 0.9 0.00 0.00 0.00 46 998.7
20260506004556 73 0 0.0 2.6 0.00 0.00 0.00 45 998.7
20260506003051 73 0 0.0 4.3 0.00 0.00 0.00 44 998.5
20260506001554 74 0 0.0 6.1 0.00 0.00 0.00 43 998.3
20260506000057 74 0 0.0 3.5 0.00 0.00 0.00 43 998.3
20260505234606 75 195 0.0 3.5 0.00 0.00 0.00 42 998.1
20260505233055 75 0 0.9 3.5 0.00 0.00 0.00 41 997.9
20260505231608 76 0 0.9 4.3 0.00 0.00 0.00 40 997.5
20260505230058 76 0 0.9 3.5 0.00 0.00 0.00 39 997.6
20260505224606 77 0 0.9 3.5 0.00 0.00 0.00 39 997.3
20260505223106 77 216 0.9 10.4 0.00 0.00 0.00 37 997.1
20260505221606 77 202 0.9 4.3 0.00 0.00 0.00 37 997.0
20260505220058 78 164 2.6 7.0 0.00 0.00 0.00 35 996.7
20260505214614 78 0 0.9 7.8 0.00 0.00 0.00 37 996.6
20260505213102 79 173 4.3 9.6 0.00 0.00 0.00 35 996.4
20260505211601 79 195 1.7 8.7 0.00 0.00 0.00 36 996.4
20260505210058 79 166 2.6 7.0 0.00 0.00 0.00 35 996.4
20260505204556 80 211 2.6 8.7 0.00 0.00 0.00 34 996.3
20260505203054 80 185 2.6 9.6 0.00 0.00 0.00 34 996.3
20260505201558 80 160 4.3 11.3 0.00 0.00 0.00 36 996.4
20260505200059 80 248 3.5 10.4 0.00 0.00 0.00 36 996.6
20260505194557 80 205 2.6 12.2 0.00 0.00 0.00 35 996.8
20260505193056 80 217 2.6 10.4 0.00 0.00 0.00 35 997.1
20260505191554 80 163 4.3 8.7 0.00 0.00 0.00 35 997.2
20260505190054 80 0 0.0 0.0 0.00 0.00 0.00 38 997.2
20260505184553 79 0 0.0 7.0 0.00 0.00 0.00 39 997.6
20260505183106 80 0 0.0 4.3 0.00 0.00 0.00 41 997.6
20260505181554 80 0 0.0 4.3 0.00 0.00 0.00 39 997.9
20260505174601 79 0 0.0 0.0 0.00 0.00 0.00 44 997.9
20260505173054 78 0 0.0 0.0 0.00 0.00 0.00 44 998.3
20260505171551 78 0 0.0 0.0 0.00 0.00 0.00 46 998.3
20260505170055 78 0 0.0 0.0 0.00 0.00 0.00 44 998.3
20260505164551 78 0 0.0 0.0 0.00 0.00 0.00 47 998.6
20260505163053 77 0 0.0 0.0 0.00 0.00 0.00 49 998.9
20260505161602 76 0 0.0 0.0 0.00 0.00 0.00 49 999.0
20260505153102 75 0 0.0 0.0 0.00 0.00 0.00 52 999.6
20260505151607 75 0 0.0 0.0 0.00 0.00 0.00 52 999.6
20260505140111 67 0 0.0 0.0 0.00 0.00 0.00 63 1000.2
20260505124607 57 0 0.0 0.0 0.00 0.00 0.00 75 1000.3
20260505123053 55 0 0.0 0.0 0.00 0.00 0.00 76 1000.2
20260505121559 54 0 0.0 0.0 0.00 0.00 0.00 77 1000.2
20260505120054 52 0 0.0 0.0 0.00 0.00 0.00 79 1000.4
20260505114559 52 0 0.0 0.0 0.00 0.00 0.00 79 1000.4
20260505113111 51 0 0.0 0.0 0.00 0.00 0.00 78 1000.5
20260505111551 51 0 0.0 0.0 0.00 0.00 0.00 77 1000.5
20260505101553 52 0 0.0 0.0 0.00 0.00 0.00 73 1000.2
20260505100053 52 0 0.0 0.0 0.00 0.00 0.00 73 1000.0
20260505094553 52 0 0.0 0.0 0.00 0.00 0.00 72 999.8
20260505093059 52 0 0.0 0.0 0.00 0.00 0.00 72 999.9
20260505091603 52 0 0.0 0.0 0.00 0.00 0.00 71 999.5
20260505090052 52 0 0.0 0.0 0.00 0.00 0.00 70 999.5
20260505084554 53 0 0.0 0.0 0.00 0.00 0.00 70 999.8
20260505083100 53 0 0.0 0.0 0.00 0.00 0.00 69 999.7
20260505081559 53 0 0.0 0.0 0.00 0.00 0.00 69 999.7
20260505080056 53 0 0.0 0.0 0.00 0.00 0.00 68 999.8
20260505074552 54 0 0.0 0.0 0.00 0.00 0.00 66 999.8
20260505073129 55 0 0.0 0.0 0.00 0.00 0.00 65 999.6
20260505071600 56 0 0.0 0.0 0.00 0.00 0.00 62 999.7
20260505064556 60 0 0.0 0.0 0.00 0.00 0.00 55 999.6
20260505063054 59 0 0.0 0.0 0.00 0.00 0.00 55 999.6
20260505061601 59 0 0.0 0.0 0.00 0.00 0.00 55 999.6
20260505060055 59 0 0.0 0.0 0.00 0.00 0.00 56 999.7
20260505054551 59 0 0.0 0.0 0.00 0.00 0.00 56 999.7
20260505053058 59 0 0.0 0.0 0.00 0.00 0.00 56 1000.0
20260505051604 59 0 0.0 0.0 0.00 0.00 0.00 55 1000.1
20260505050103 59 0 0.0 0.0 0.00 0.00 0.00 56 1000.0
20260505041557 58 0 0.0 0.0 0.00 0.00 0.00 57 1000.2
20260505040057 59 0 0.0 0.0 0.00 0.00 0.00 55 1000.3
20260505034554 60 0 0.0 0.0 0.00 0.00 0.00 53 1000.1
20260505033052 60 0 0.0 0.0 0.00 0.00 0.00 53 1000.1
20260505031555 60 0 0.0 0.0 0.00 0.00 0.00 52 1000.1
20260505030057 60 0 0.0 0.0 0.00 0.00 0.00 52 1000.2
20260505024604 61 0 0.0 0.0 0.00 0.00 0.00 51 1000.2
20260505023055 61 0 0.0 0.0 0.00 0.00 0.00 50 1000.2
20260505021553 61 0 0.0 0.0 0.00 0.00 0.00 49 1000.3
20260505020053 61 0 0.0 0.0 0.00 0.00 0.00 49 1000.2